ONEWEB-0052, 45156

Orbit data source: Space-Track

ONEWEB-0052, 45156 is a payload satellite owned by One Web (UK) in LEO that was launched on Thu, 06 Feb 2020 UTC via a SOYUZ-2-1B launch vehicle from the Tyuratam Missile And Space Complex (TTMTR). Payload-class satellites include a variety of spacecraft equipped with specific instruments for various scientific and technological missions. These include communications satellites like Starlink; space stations such as the ISS; scientific satellites like the Hubble; Earth observation satellites from companies like Planet Labs, Umbra, and HawkEye 360; GPS; miniature CubeSats for education and research; and military/defense satellites.

Loading next visibility...
Identifier
45156, 2020-008AB
Orbit
LEO
Last TLE update
21 hours ago
Origin
Manufacturer
One Web
Mission
Operational Commercial Communications
Bus & Motor
ARROW, Unknown motor
Mass
148 kg wet, ~140 kg dry
Launch date (UTC)
2020-02-06 (5 years ago)
Launch vehicle
SOYUZ-2-1B
Launch site
Tyuratam Missile And Space Complex (TTMTR)
Object type
Payload
Rocket body
Debris
Shape & HBR
Trap Box + 2 Pan, 5 m
Radar Cross Section
2.957 m², Large (>1 m²)

Expand to show TLE details & history

TLE from 21 hours ago
0 ONEWEB-0052
1 45156U 20008AB  25128.52325434 -.00000521  00000-0 -15285-2 0  9990
2 45156  87.8788 116.9126 0002593  84.7766 275.3657 13.10370755254943
Epoch: 2025-05-08T12:33Z
Definitive object data (Epoch: 2025-05-08T12:33:29.174Z)
Latitude
-0.00007°
Longitude
61.94851°
Altitude
1,224.429 km
Speed
7.242 km/s
True Right ascension
07h 47m 39s
True Declination
0° 00' 00"
Sunlit
Object was in daylight at TLE epoch
Visualization TLE readout
Latitude
67.73711°
Longitude
66.94294°
Altitude
1,231.615 km
Speed
7.246 km/s
Apparent Right ascension
06h 16m 39s
Apparent Declination
22° 05' 04"
Sunlit
Object is in daylight
Visualization observer readout
Local Sidereal Time
17:12:54
Azimuth
343.519° N
Elevation
-26.241°
Doppler factor
1
Orbital elements
Apogee altitude
1,220.815 km
Perigee altitude
1,216.875 km
Semi-major axis
7,596.982 km
Eccentricity
0.0002593
Inclination
87.8788°
RAAN
116.9126°
Arg. of periapsis
84.7766°
True anomaly
275.33612°
Mean anomaly
275.3657°
Eccentric anomaly
275.35091°
Mean motion
3.27779 °/min
BSTAR
-0.0015285
Orbital period
109.83 mins
Loading maneuver chart data...
Loading SW <> Apogee altitude chart data...
Loading historical data...
Loading historical data...
Loading historical data...
Loading historical data...
Loading historical data...
Loading historical data...
Loading historical data...

ONEWEB-0052 Visibility forecast

Observer location: undefined°, undefined°

Span
Click to sort rows by Start time (UTC) header in descending order
Start Az.
Max El. time (UTC)
Max El. Az.
Max El.
End time (UTC)
End Az.
13 mins2025-05-09 11:09:38.750Z4.92° NNE2025-05-09 11:15:38.750Z87.153° E43.732°2025-05-09 11:22:38.750Z172.633° S
8 mins2025-05-09 13:01:38.750Z316.548° NNW2025-05-09 13:04:38.750Z287.999° WNW18.58°2025-05-09 13:09:38.750Z244.241° WSW
4 mins2025-05-09 21:44:38.750Z82.104° E2025-05-09 21:45:38.750Z73.558° E12.716°2025-05-09 21:48:38.750Z48.415° ENE
13 mins2025-05-09 23:28:38.750Z173.696° S2025-05-09 23:34:38.750Z109.167° ESE44.641°2025-05-09 23:41:38.750Z2.841° NNE
7 mins2025-05-10 01:22:38.750Z259.56° W2025-05-10 01:25:38.750Z287.059° WNW16.434°2025-05-10 01:29:38.750Z322.055° NNW
|